• In France
  • List of Countries
  • For 7 days
  • Water Temperature
  • Satellite Maps
  • Weather Map
  • Weather Widgets
  • user-avatar
    Login

    Hourly Weather Salgotarjan

    Today, 17 January, Wednesday

    Time Temperature Precipitation Wind Pressure Humidity
    00:00 -1°C° 0 mm 1 mps 718 mmHg 96%
    01:00 -2°C° 0 mm 1 mps 718 mmHg 95%
    02:00 -2°C° 0.1 mm 1 mps 718 mmHg 95%
    03:00 -1°C° 0.1 mm 1 mps 718 mmHg 95%
    04:00 -1°C° 0.1 mm 1 mps 717 mmHg 95%
    05:00 -1°C° 0.1 mm 1 mps 717 mmHg 95%
    06:00 -1°C° 0.1 mm 1 mps 717 mmHg 95%
    07:00 -2°C° 0 mm 0 mps 717 mmHg 94%
    08:00 -1°C° 0 mm 0 mps 717 mmHg 92%
    09:00 -1°C° 0 mm 0 mps 717 mmHg 90%
    10:00 +1°C° 0 mm 1 mps 717 mmHg 88%
    11:00 +2°C° 0 mm 1 mps 717 mmHg 87%
    12:00 +2°C° 0 mm 1 mps 717 mmHg 86%
    13:00 +2°C° 0 mm 2 mps 717 mmHg 85%
    14:00 +1°C° 0.1 mm 2 mps 716 mmHg 87%
    15:00 +1°C° 0.1 mm 2 mps 716 mmHg 89%
    16:00 -1°C° 0.1 mm 2 mps 716 mmHg 91%
    17:00 -1°C° 0 mm 3 mps 717 mmHg 88%
    18:00 -1°C° 0 mm 3 mps 717 mmHg 86%
    19:00 -2°C° 0 mm 4 mps 717 mmHg 84%
    20:00 -2°C° 0 mm 4 mps 718 mmHg 81%
    21:00 -2°C° 0 mm 5 mps 719 mmHg 78%
    22:00 -2°C° 0 mm 5 mps 719 mmHg 75%
    23:00 -4°C° 0 mm 5 mps 720 mmHg 75%

    Tomorrow, 18 January, Thursday

    Time Temperature Precipitation Wind Pressure Humidity
    00:00 -4°C° 0 mm 5 mps 720 mmHg 75%
    01:00 -4°C° 0 mm 5 mps 721 mmHg 75%
    02:00 -4°C° 0 mm 5 mps 722 mmHg 76%
    03:00 -4°C° 0 mm 4 mps 722 mmHg 78%
    04:00 -4°C° 0 mm 4 mps 723 mmHg 79%
    05:00 -4°C° 0 mm 4 mps 723 mmHg 80%
    06:00 -4°C° 0 mm 4 mps 724 mmHg 82%
    07:00 -4°C° 0 mm 4 mps 725 mmHg 83%
    08:00 -3°C° 0 mm 4 mps 725 mmHg 78%
    09:00 -2°C° 0 mm 4 mps 726 mmHg 74%
    10:00 -1°C° 0 mm 5 mps 727 mmHg 69%
    11:00 0°C° 0 mm 4 mps 726 mmHg 67%
    12:00 +1°C° 0 mm 3 mps 726 mmHg 65%
    13:00 +2°C° 0 mm 3 mps 726 mmHg 63%
    14:00 +1°C° 0 mm 3 mps 726 mmHg 68%
    15:00 0°C° 0 mm 3 mps 725 mmHg 72%
    16:00 0°C° 0 mm 3 mps 725 mmHg 77%
    17:00 0°C° 0.1 mm 3 mps 724 mmHg 77%
    18:00 -1°C° 0.1 mm 3 mps 724 mmHg 78%
    19:00 -1°C° 0.1 mm 3 mps 723 mmHg 78%
    20:00 -1°C° 0.3 mm 2 mps 723 mmHg 79%
    21:00 +1°C° 0.3 mm 2 mps 722 mmHg 79%
    22:00 +1°C° 0.3 mm 2 mps 722 mmHg 80%
    23:00 +1°C° 0.5 mm 2 mps 722 mmHg 82%

    Day after tomorrow, 19 January, Friday

    Time Temperature Precipitation Wind Pressure Humidity
    00:00 0°C° 0.5 mm 3 mps 722 mmHg 84%
    01:00 0°C° 0.5 mm 3 mps 722 mmHg 86%
    02:00 +1°C° 0.1 mm 3 mps 722 mmHg 85%
    03:00 0°C° 0.1 mm 4 mps 722 mmHg 84%
    04:00 0°C° 0.1 mm 4 mps 722 mmHg 83%
    05:00 0°C° 0 mm 4 mps 722 mmHg 84%
    06:00 0°C° 0 mm 4 mps 723 mmHg 84%
    07:00 0°C° 0 mm 4 mps 723 mmHg 84%
    08:00 0°C° 0 mm 4 mps 724 mmHg 81%
    09:00 +1°C° 0 mm 5 mps 724 mmHg 78%
    10:00 +1°C° 0 mm 5 mps 725 mmHg 75%
    11:00 +1°C° 0 mm 4 mps 725 mmHg 73%
    12:00 +1°C° 0 mm 4 mps 725 mmHg 72%
    13:00 +3°C° 0 mm 4 mps 725 mmHg 70%
    14:00 +2°C° 0 mm 3 mps 725 mmHg 74%
    15:00 +1°C° 0 mm 3 mps 725 mmHg 77%
    16:00 +2°C° 0 mm 2 mps 726 mmHg 80%
    17:00 +1°C° 0 mm 2 mps 726 mmHg 82%
    18:00 +1°C° 0 mm 2 mps 726 mmHg 84%
    19:00 +1°C° 0 mm 1 mps 727 mmHg 86%
    20:00 -1°C° 0 mm 2 mps 727 mmHg 86%
    21:00 -1°C° 0 mm 2 mps 727 mmHg 86%
    22:00 -1°C° 0 mm 2 mps 727 mmHg 87%
    23:00 -1°C° 0 mm 2 mps 727 mmHg 87%

    20 January, Saturday

    Time Temperature Precipitation Wind Pressure Humidity
    00:00 0°C° 0 mm 1 mps 727 mmHg 87%
    01:00 0°C° 0 mm 1 mps 727 mmHg 87%
    02:00 0°C° 0 mm 1 mps 726 mmHg 87%
    03:00 0°C° 0 mm 1 mps 726 mmHg 87%
    04:00 -1°C° 0 mm 1 mps 726 mmHg 88%
    05:00 -1°C° 0 mm 1 mps 726 mmHg 88%
    06:00 -1°C° 0 mm 1 mps 726 mmHg 88%
    07:00 -2°C° 0 mm 1 mps 726 mmHg 88%
    08:00 -1°C° 0 mm 1 mps 726 mmHg 83%
    09:00 0°C° 0 mm 1 mps 726 mmHg 79%
    10:00 -1°C° 0 mm 2 mps 726 mmHg 74%
    11:00 +2°C° 0 mm 1 mps 726 mmHg 72%
    12:00 +2°C° 0 mm 1 mps 726 mmHg 70%
    13:00 +3°C° 0 mm 1 mps 725 mmHg 68%
    14:00 +3°C° 0 mm 1 mps 725 mmHg 73%
    15:00 +1°C° 0 mm 2 mps 725 mmHg 78%
    16:00 +1°C° 0 mm 2 mps 725 mmHg 83%
    17:00 -1°C° 0 mm 2 mps 725 mmHg 85%
    18:00 -1°C° 0 mm 2 mps 725 mmHg 88%
    19:00 -2°C° 0 mm 2 mps 725 mmHg 90%
    20:00 -2°C° 0 mm 2 mps 725 mmHg 90%
    21:00 -3°C° 0 mm 2 mps 725 mmHg 90%
    22:00 -3°C° 0 mm 2 mps 726 mmHg 90%
    23:00 -3°C° 0 mm 2 mps 726 mmHg 89%

    21 January, Sunday

    Time Temperature Precipitation Wind Pressure Humidity
    00:00 -3°C° 0 mm 2 mps 726 mmHg 89%
    01:00 -5°C° 0 mm 3 mps 726 mmHg 89%
    02:00 -4°C° 0 mm 2 mps 726 mmHg 89%
    03:00 -4°C° 0 mm 2 mps 727 mmHg 88%
    04:00 -4°C° 0 mm 2 mps 727 mmHg 88%
    05:00 -4°C° 0 mm 2 mps 728 mmHg 87%
    06:00 -4°C° 0 mm 2 mps 728 mmHg 87%
    07:00 -4°C° 0 mm 2 mps 729 mmHg 86%
    08:00 -4°C° 0 mm 2 mps 730 mmHg 81%
    09:00 -3°C° 0 mm 2 mps 730 mmHg 76%
    10:00 -2°C° 0 mm 2 mps 731 mmHg 71%
    11:00 -1°C° 0 mm 2 mps 731 mmHg 68%
    12:00 +1°C° 0 mm 2 mps 732 mmHg 65%
    13:00 +1°C° 0 mm 2 mps 732 mmHg 62%
    14:00 +1°C° 0 mm 2 mps 732 mmHg 66%
    15:00 -1°C° 0 mm 2 mps 733 mmHg 70%
    16:00 -2°C° 0 mm 2 mps 733 mmHg 73%
    17:00 -2°C° 0 mm 2 mps 733 mmHg 76%
    18:00 -3°C° 0 mm 2 mps 734 mmHg 78%
    19:00 -2°C° 0 mm 1 mps 734 mmHg 81%
    20:00 -2°C° 0 mm 1 mps 734 mmHg 81%
    21:00 -2°C° 0 mm 1 mps 735 mmHg 81%
    22:00 -2°C° 0 mm 1 mps 735 mmHg 82%
    23:00 -2°C° 0 mm 1 mps 735 mmHg 81%

    22 January, Monday

    Time Temperature Precipitation Wind Pressure Humidity
    00:00 -2°C° 0 mm 1 mps 735 mmHg 81%
    01:00 -2°C° 0 mm 1 mps 735 mmHg 80%
    02:00 -4°C° 0 mm 0 mps 735 mmHg 80%
    03:00 -4°C° 0 mm 0 mps 735 mmHg 80%
    04:00 -4°C° 0 mm 0 mps 735 mmHg 80%
    05:00 -4°C° 0 mm 0 mps 735 mmHg 81%
    06:00 -4°C° 0 mm 0 mps 735 mmHg 81%
    07:00 -4°C° 0 mm 0 mps 735 mmHg 82%
    08:00 -2°C° 0 mm 1 mps 734 mmHg 79%
    09:00 -2°C° 0 mm 1 mps 734 mmHg 77%
    10:00 -1°C° 0 mm 1 mps 734 mmHg 74%
    11:00 0°C° 0 mm 1 mps 734 mmHg 72%
    12:00 0°C° 0 mm 1 mps 734 mmHg 69%
    13:00 -1°C° 0 mm 2 mps 734 mmHg 67%
    14:00 +1°C° 0 mm 1 mps 734 mmHg 70%
    15:00 0°C° 0 mm 1 mps 734 mmHg 72%
    16:00 0°C° 0 mm 1 mps 735 mmHg 75%
    17:00 0°C° 0 mm 1 mps 735 mmHg 77%
    18:00 -1°C° 0 mm 1 mps 735 mmHg 78%
    19:00 -1°C° 0 mm 1 mps 735 mmHg 80%
    20:00 -1°C° 0 mm 1 mps 736 mmHg 81%
    21:00 -1°C° 0 mm 1 mps 736 mmHg 81%
    22:00 -1°C° 0 mm 1 mps 736 mmHg 82%
    23:00 -1°C° 0 mm 1 mps 736 mmHg 82%
    Show more